Volver al catálogo

THORAD DELTA 1 DEB

ActivoLEO
NORAD 8177·DEBRIS·🇺🇸 United States

Lanzado Nov 15, 1974 desde Vandenberg Space Force Base

Loading…

Próximos Pases (próximas 24 horas)

TLE

ActualizadoSource: Space-Track

Época: Sep 14, 2026, 05:25 UTC

1 08177U 74089AT  26257.22597628 -.00000185  00000-0 -15574-2 0  9994
2 08177 101.1295 356.1994 0261258 344.5207  41.9404 12.05352654280465

Sigue THORAD DELTA 1 DEB en tiempo real con AllMySat

Download on the App Store